User: anonymous   Login
Location: Barcelona
(41.3830°N, 2.1830°E)
Time: 12:59:27
(UTC+01:00)
Language:

PicSat - Orbit

View from above orbital plane
View from above orbital plane
View from above satellite
View from above satellite

Ground track
Ground track

The orbit data is extracted from the following two-line orbital elements,

1 43131U 18004W   19079.91901222 +.00001809 +00000-0 +78201-4 0  9997
2 43131 097.4982 148.0344 0009042 199.1177 160.9722 15.23762805065846
Epoch (UTC): 20 March 2019 22:03:22
Eccentricity: 0.0009042
inclination: 97.4982°
perigee height: 488 km
apogee height: 501 km
right ascension of ascending node: 148.0344°
argument of perigee: 199.1177°
revolutions per day: 15.23762805
mean anomaly at epoch: 160.9722°
orbit number at epoch: 6584

The dashed part of the orbit path shows where the satellite is in the earth's shadow,  

DLR